Back to catalog

STARLINK-38260

AliveCommunicationsSSO
NORAD 100304·PAYLOAD·🇺🇸 United States

Launched Aug 12, 2026 from Vandenberg Space Force Base

Loading…

Next Passes (next 24 hours)

TLE

FreshSource: Space-Track

Epoch: Sep 14, 2026, 14:38 UTC

1 A0304U 26184D   26257.61023729  .00011618  00000-0  36152-3 0  9997
2 A0304  97.2833 122.7512 0001716 102.6027 257.5408 15.33455298  6455

Track STARLINK-38260 in real time with AllMySat

Download on the App Store